Date String (YYYY-MM-DD hh:mm:ss) UTC,Instrument flags,Ambient pressure (hPa),Sample flow (lpm),Bypass flow (lpm),Sample temperature (°C),Ambient temperature (°C),ASC tube jacket temperature (°C),LED temperature (°C),Box temperature (°C),Sample RH (%),Span deviation,Mass concentration (μg/m³),Mass concentration (μg/m³),Mass concentration (μg/m³)
DateTimeUTC,F1_M11,P_M11,Q1_M11,Q2_M11,T1_M11,T2_M11,T3_M11,T4_M11,T5_M11,U1_M11,ZSPAN_M11,X2_M11,X0_M11,X1_M11
2022-09-21 09:00:00,,0830.7,5.00,0.00,30.4,28.2,00.0,39.0,32.2,21.5,0000.2,0005.64,0014.85,0004.41
2022-09-21 09:01:00,,0830.8,5.00,0.00,30.3,27.1,00.0,39.0,32.1,21.6,0000.0,0005.62,0015.24,0004.41
2022-09-21 09:02:00,,0830.8,5.00,0.00,30.3,27.0,00.0,38.9,32.0,21.7,0000.0,0005.68,0016.30,0004.43
2022-09-21 09:03:00,,0830.8,5.00,0.00,30.2,27.3,00.0,38.9,31.8,21.8,0000.0,0005.68,0016.59,0004.44
2022-09-21 09:04:00,,0830.7,5.01,0.00,30.1,27.6,00.0,38.9,31.8,21.9,0000.0,0005.63,0016.38,0004.45
2022-09-21 09:05:00,,0830.7,5.01,0.00,30.1,27.9,00.0,38.8,31.8,22.0,0000.0,0005.62,0016.85,0004.44
2022-09-21 09:06:00,,0830.7,4.99,0.00,30.1,28.1,00.0,38.8,31.9,22.0,0000.0,0005.58,0017.14,0004.45
2022-09-21 09:07:00,,0830.7,5.01,0.00,30.1,28.3,00.0,38.8,31.9,22.1,0000.0,0005.57,0016.95,0004.44
2022-09-21 09:08:00,,0830.6,4.99,0.00,30.1,28.4,00.0,38.8,31.9,22.1,0000.0,0005.58,0016.27,0004.43
2022-09-21 09:09:00,,0830.7,5.01,0.00,30.1,28.6,00.0,38.8,31.9,22.1,0000.0,0005.60,0016.63,0004.44
2022-09-21 09:10:00,,0830.6,4.99,0.00,30.1,28.7,00.0,38.8,32.0,22.1,0000.0,0005.61,0016.77,0004.44
2022-09-21 09:11:00,,0830.7,5.02,0.00,30.1,28.7,00.0,38.9,31.9,22.1,0000.0,0005.65,0016.77,0004.44
2022-09-21 09:12:00,,0830.6,4.99,0.00,30.1,28.8,00.0,38.9,32.0,22.1,0000.0,0005.70,0016.60,0004.46
2022-09-21 09:13:00,,0830.6,5.02,0.00,30.2,28.8,00.0,38.9,32.0,22.1,0000.0,0005.69,0016.08,0004.47
2022-09-21 09:14:00,,0830.6,4.99,0.00,30.2,28.9,00.0,38.9,32.0,22.1,0000.0,0005.67,0015.50,0004.49
2022-09-21 09:15:00,,0830.7,5.00,0.00,30.2,29.0,00.0,38.9,32.1,22.1,0000.0,0005.71,0017.01,0004.51
2022-09-21 09:16:00,,0830.7,5.01,0.00,30.2,29.0,00.0,38.9,32.1,22.1,0000.0,0005.76,0017.26,0004.53
2022-09-21 09:17:00,,0830.7,5.00,0.00,30.3,29.0,00.0,38.9,32.1,22.1,0000.2,0005.78,0017.40,0004.55
2022-09-21 09:18:00,,0830.7,5.00,0.00,30.3,29.1,00.0,39.0,32.1,22.1,0000.3,0005.79,0017.21,0004.57
2022-09-21 09:19:00,,0830.7,5.01,0.00,30.3,29.1,00.0,39.0,32.2,22.1,0000.0,0005.76,0016.63,0004.58
2022-09-21 09:20:00,,0830.8,4.99,0.00,30.3,29.2,00.0,39.0,32.2,22.0,0000.2,0005.75,0016.16,0004.60
2022-09-21 09:21:00,,0830.8,5.01,0.00,30.4,29.2,00.0,39.0,32.2,22.0,0000.1,0005.75,0016.00,0004.62
2022-09-21 09:22:00,,0830.8,5.00,0.00,30.4,28.7,00.0,39.0,32.2,21.9,0000.1,0005.76,0016.05,0004.63
2022-09-21 09:23:00,,0830.8,5.00,0.00,30.4,27.3,00.0,39.0,32.1,21.9,0000.2,0005.72,0016.65,0004.65
2022-09-21 09:24:00,,0830.8,5.00,0.00,30.3,27.0,00.0,38.9,32.1,21.9,0000.3,0005.70,0016.60,0004.67
2022-09-21 09:25:00,,0830.8,5.00,0.00,30.2,27.1,00.0,38.9,31.9,22.0,0000.4,0005.73,0016.36,0004.68
2022-09-21 09:26:00,,0830.8,5.00,0.00,30.1,27.5,00.0,38.9,31.8,22.2,0000.0,0005.75,0016.18,0004.69
2022-09-21 09:27:00,,0830.8,5.00,0.00,30.1,27.7,00.0,38.9,31.8,22.3,0000.0,0005.76,0014.53,0004.70
2022-09-21 09:28:00,,0830.8,5.00,0.00,30.1,28.0,00.0,38.8,31.8,22.3,0000.0,0005.78,0014.72,0004.71
2022-09-21 09:29:00,,0830.8,5.00,0.00,30.1,28.2,00.0,38.8,31.9,22.3,0000.0,0005.85,0014.79,0004.72
2022-09-21 09:30:00,,0830.8,5.01,0.00,30.1,28.4,00.0,38.8,31.9,22.2,0000.0,0005.93,0014.67,0004.74
2022-09-21 09:31:00,,0830.8,4.98,0.00,30.1,28.5,00.0,38.8,31.9,22.2,0000.0,0005.97,0014.90,0004.77
2022-09-21 09:32:00,,0830.8,5.02,0.00,30.1,28.6,00.0,38.8,31.9,22.2,0000.0,0006.00,0015.37,0004.79
2022-09-21 09:33:00,,0830.8,4.99,0.00,30.1,28.7,00.0,38.8,31.9,22.2,0000.0,0006.02,0015.44,0004.81
2022-09-21 09:34:00,,0830.7,5.00,0.00,30.1,28.8,00.0,38.9,32.0,22.2,0000.1,0006.05,0014.69,0004.81
2022-09-21 09:35:00,,0830.7,5.00,0.00,30.1,28.8,00.0,38.9,32.0,22.2,0001.3,0006.09,0014.31,0004.82
2022-09-21 09:36:00,,0830.7,4.99,0.00,30.2,28.9,00.0,38.9,32.0,22.3,0001.5,0006.12,0014.06,0004.82
2022-09-21 09:37:00,,0830.7,5.00,0.00,30.2,28.9,00.0,38.9,32.0,22.3,0001.5,0006.11,0014.06,0004.82
2022-09-21 09:38:00,,0830.7,5.02,0.00,30.2,29.0,00.0,38.9,32.1,22.2,0001.5,0006.09,0014.29,0004.83
2022-09-21 09:39:00,,0830.6,5.00,0.00,30.2,29.0,00.0,38.9,32.1,22.2,0001.1,0006.13,0014.07,0004.83
2022-09-21 09:40:00,,0830.6,5.00,0.00,30.3,29.1,00.0,38.9,32.1,22.2,0000.8,0006.11,0013.32,0004.83
2022-09-21 09:41:00,,0830.6,5.00,0.00,30.3,29.1,00.0,39.0,32.1,22.2,0001.2,0006.07,0013.60,0004.85
2022-09-21 09:42:00,,0830.6,5.00,0.00,30.3,29.1,00.0,39.0,32.2,22.2,0000.8,0006.05,0013.83,0004.83
2022-09-21 09:43:00,,0830.6,5.00,0.00,30.3,29.2,00.0,39.0,32.2,22.2,0001.2,0006.04,0014.43,0004.83
2022-09-21 09:44:00,,0830.6,5.01,0.00,30.4,29.2,00.0,39.0,32.2,22.2,0001.3,0006.01,0015.07,0004.83
2022-09-21 09:45:00,,0830.6,4.99,0.00,30.4,29.2,00.0,39.0,32.3,22.1,0000.6,0005.98,0015.16,0004.84
2022-09-21 09:46:00,,0830.6,5.01,0.00,30.4,29.3,00.0,39.1,32.3,22.0,0000.6,0005.99,0016.12,0004.85
2022-09-21 09:47:00,,0830.6,4.99,0.00,30.4,29.2,00.0,39.1,32.3,21.9,-000.3,0006.03,0016.46,0004.87
2022-09-21 09:48:00,,0830.6,5.01,0.00,30.4,28.1,00.0,39.1,32.3,21.9,-000.3,0006.07,0017.65,0004.89
2022-09-21 09:49:00,,0830.6,5.00,0.00,30.4,26.7,00.0,39.0,32.1,22.0,-000.2,0006.15,0017.57,0004.90
2022-09-21 09:50:00,,0830.6,5.00,0.00,30.3,26.3,00.0,39.0,32.0,22.0,0000.0,0006.15,0018.15,0004.91
2022-09-21 09:51:00,,0830.6,5.00,0.00,30.2,26.4,00.0,38.9,31.8,22.1,0000.6,0006.15,0018.38,0004.92
2022-09-21 09:52:00,,0830.6,5.00,0.00,30.1,26.8,00.0,38.9,31.7,22.3,0000.6,0006.16,0018.49,0004.90
2022-09-21 09:53:00,,0830.6,4.99,0.00,30.0,27.2,00.0,38.8,31.7,22.4,0000.4,0006.19,0019.16,0004.89
2022-09-21 09:54:00,,0830.6,5.00,0.00,30.0,27.5,00.0,38.8,31.7,22.4,0000.3,0006.19,0018.59,0004.88
2022-09-21 09:55:00,,0830.6,5.01,0.00,30.0,27.8,00.0,38.8,31.7,22.4,0000.0,0006.20,0017.81,0004.88
2022-09-21 09:56:00,,0830.6,4.99,0.00,30.0,28.0,00.0,38.8,31.7,22.4,0000.1,0006.20,0017.48,0004.86
2022-09-21 09:57:00,,0830.6,5.01,0.00,30.0,28.1,00.0,38.8,31.7,22.5,0001.2,0006.21,0017.01,0004.85
2022-09-21 09:58:00,,0830.6,4.99,0.00,29.9,28.3,00.0,38.7,31.7,22.5,0001.7,0006.17,0016.56,0004.83
2022-09-21 09:59:00,,0830.6,5.01,0.00,30.0,28.4,00.0,38.7,31.8,22.6,0001.0,0006.13,0015.41,0004.81
